GPS BIIF-11

Last updated on Sat Jun 27 2026 00:02:55 GMT+0000 (Coordinated Universal Time)

1 41019U 15062A 26177.25150271 -.00000083 00000+0 00000+0 0 9995 2 41019 56.9655 30.4619 0112170 231.0060 128.0428 2.00567152 78019
UTC large
Height (km)
Speed (km/s)
/
Latitude / Longitude
Inclination (degrees)
Orbital Period (minutes)
Azimuth
Elevation
Range (km)
Doppler Factor

Next 0 passes for location: London (51.5072 / 0.1276)

No passes found over London.
GPS BIIF-11